User: anonymous   Login
Location: Melbourne
(37.8170°S, 144.9670°E)
Time: 06:39:28
(UTC+10:00)
Language:

Cosmos 962 Rocket - Orbit

View from above orbital plane
View from above orbital plane
View from above satellite
View from above satellite

Ground track
Ground track

The orbit data is extracted from the following two-line orbital elements,

1 10461U 77107B   17142.83557109 +.00000056 +00000-0 +41055-4 0  9997
2 10461 082.9509 032.2307 0032397 217.4920 213.1374 13.76771989987006
Epoch (UTC): 22 May 2017 20:03:13
Eccentricity: 0.0032397
inclination: 82.9509°
perigee height: 951 km
apogee height: 999 km
right ascension of ascending node: 32.2307°
argument of perigee: 217.4920°
revolutions per day: 13.76771989
mean anomaly at epoch: 213.1374°
orbit number at epoch: 98700

The dashed part of the orbit path shows where the satellite is in the earth's shadow,  

DLR